#timestamp,LO_Frequency,Hit,StdDev 
1624716015.1,286047000.4,N
1624716016.0,286047000.4,N
1624716035.8,286046998.6,N
1624716055.6,286047000.9,N
1624716075.5,286047000.2,N
1624716095.3,286046999.7,N
1624716115.2,286047000.1,N
1624716135.9,286047000.1,N
1624716155.7,286047002.4,N
1624716175.6,286047002.4,N
1624716195.4,286046999.8,N
1624716215.2,286046999.8,N
1624716235.1,286047002.5,N
1624716236.0,286047002.5,N
1624716255.8,286046999.7,N
1624716275.7,286047002.0,N
1624716295.5,286047002.1,N
1624716315.3,286046999.7,N
1624716335.2,286047002.4,N
1624716355.0,286047000.2,N
1624716355.9,286047000.2,N
1624716375.7,286047000.1,N
1624716395.6,286047000.3,N
1624716415.4,286046998.2,N
1624716435.3,286047000.7,N
1624716455.1,286047000.2,N
1624716456.0,286047000.2,N
1624716475.8,286046999.8,N
1624716495.7,286047000.2,N
1624716515.5,286047000.9,N
1624716535.3,286047000.4,N
1624716555.2,286047000.0,N
1624716575.0,286047002.5,N
1624716575.9,286047002.5,N
1624716595.8,286047000.1,N
1624716615.6,286046999.7,N
1624716635.4,286046999.9,N
1624716655.3,286047001.2,N
1624716675.1,286047001.0,N
1624716695.9,286047000.8,N
1624716715.7,286047000.8,N
1624716735.5,286047000.6,N
1624716755.4,286047001.0,N
1624716775.2,286046998.5,N
1624716795.0,286046996.5,Y
1624716795.9,286046996.5,P
1624716815.8,286046998.0,N
1624716835.6,286046995.2,N
1624716855.5,286046995.4,N
1624716875.3,286046995.1,N
1624716895.1,286046996.1,N
1624716915.9,286046995.8,N
1624716935.7,286046995.5,N
1624716955.5,286046997.6,N
1624716975.4,286046994.9,Y
1624716995.2,286047000.8,P
1624717015.1,286047001.1,N
1624717016.0,286047001.1,N
1624717035.8,286046998.5,N
1624717055.6,286047001.0,N
1624717075.5,286046998.3,N
1624717095.3,286046998.8,N
1624717115.1,286046998.8,N
1624717135.9,286046998.6,N
1624717155.7,286046998.1,N
1624717175.6,286046998.2,N
1624717195.4,286047000.9,N
1624717215.2,286046998.5,N
1624717235.1,286046998.9,N
1624717236.0,286046998.9,N
1624717255.8,286047001.1,N
1624717275.6,286047000.6,N
1624717295.5,286047000.6,N
1624717315.3,286047000.0,N
1624717335.2,286046998.2,N
1624717355.9,286047000.9,N
1624717375.7,286046998.1,N
1624717395.6,286046998.2,N
1624717415.4,286046998.1,N
1624717435.2,286046998.5,N
1624717455.1,286046998.6,N
1624717456.0,286046998.6,N
1624717475.8,286046998.1,N
1624717495.7,286047000.9,N
1624717515.5,286047000.0,N
1624717535.3,286046998.3,N
1624717555.2,286046998.1,N
1624717575.0,286046998.3,N
1624717575.9,286046998.3,N
1624717595.8,286047000.9,N
1624717615.6,286047000.1,N
1624717635.4,286047000.5,N
1624717655.3,286047001.0,N
1624717675.1,286047000.5,N
1624717695.8,286047000.8,N
1624717715.7,286047000.4,N
1624717735.5,286046999.9,N
1624717755.4,286047000.3,N
1624717775.2,286047000.0,N
1624717795.0,286047002.4,N
1624717795.9,286047002.4,N
1624717815.8,286047002.1,N
1624717835.6,286047001.3,N
1624717855.4,286047002.1,N
1624717875.3,286046999.7,N
1624717895.1,286047000.0,N
1624717915.9,286047002.7,N
1624717935.7,286047000.1,N
1624717955.5,286047001.5,N
1624717975.4,286047002.5,N
1624717995.2,286047011.9,Y
1624718015.1,286047002.5,P
1624718016.0,286047002.5,N
1624718035.8,286047002.4,N
1624718055.6,286047002.0,N
1624718075.5,286047002.1,N
1624718095.3,286047002.0,N
1624718115.1,286047001.6,N
1624718135.9,286047001.3,N
1624718155.7,286047002.5,Y
1624718175.6,286047001.2,P
1624718195.4,286046998.4,P
1624718215.2,286046998.6,N
1624718235.1,286047001.2,N
1624718236.0,286047001.2,N
1624718255.8,286047001.1,N
1624718275.7,286047002.4,N
1624718295.5,286047000.2,N
1624718315.3,286046999.8,N
1624718335.2,286047000.1,N
1624718355.0,286047002.2,N
1624718355.9,286047002.2,N
1624718375.8,286047002.0,N
1624718395.6,286047001.4,N
1624718415.4,286047001.8,N
1624718435.3,286047002.6,N
1624718455.1,286047002.3,N
1624718456.0,286047002.3,N
1624718475.8,286047004.4,Y
1624718495.7,286047002.4,P
1624718515.5,286047001.9,P
1624718535.4,286046999.8,N
1624718555.2,286047000.2,N
1624718575.0,286047000.7,N
1624718575.9,286047000.7,N
1624718595.8,286046998.6,N
1624718615.6,286047000.9,N
1624718635.4,286047000.0,N
1624718655.3,286047000.5,N
1624718675.1,286047000.9,N
1624718695.9,286047001.1,N
1624718715.7,286047000.3,N
1624718735.5,286047002.8,Y
1624718755.4,286047002.6,P
1624718775.2,286047002.8,N
1624718795.0,286047000.4,N
1624718796.0,286047000.4,N
1624718815.8,286046998.1,N
1624718835.6,286046998.6,N
1624718855.5,286046998.8,N
1624718875.3,286046998.2,N
1624718895.1,286046998.3,N
1624718915.9,286047000.5,N
1624718935.7,286047000.3,N
1624718955.6,286047002.6,N
1624718975.4,286046999.7,N
1624718995.2,286047000.5,N
1624719015.1,286047000.6,N
1624719016.0,286047000.6,N
1624719035.8,286047001.1,N
1624719055.7,286047001.0,N
1624719075.5,286047000.9,N
1624719095.3,286047000.5,N
1624719115.2,286047000.1,N
1624719135.0,286047001.7,N
1624719135.9,286047001.7,N
1624719155.7,286047004.3,Y
1624719175.6,286047004.4,P
1624719195.4,286047004.2,N
1624719215.3,286047001.5,N
1624719235.1,286047004.4,N
1624719236.0,286047004.4,N
1624719255.8,286047004.1,N
1624719275.7,286047001.5,N
1624719295.5,286047000.2,N
1624719315.4,286047000.9,N
1624719335.2,286047002.3,N
1624719355.0,286047002.8,N
1624719355.9,286047002.8,N
1624719375.8,286046998.1,N
1624719395.6,286046998.8,N
1624719415.4,286047000.4,N
1624719435.3,286047002.4,N
1624719455.1,286047001.9,N
1624719475.9,286047003.9,N
1624719495.7,286047004.4,N
1624719515.5,286047001.7,N
1624719535.4,286047006.0,Y
1624719555.2,286047001.6,P
1624719575.1,286047003.8,P
1624719576.0,286047003.8,P
1624719595.8,286047004.2,Y
